LZ1BAB-WX Weather Reports


time (UTC)temp
C
wind
direction
speed
KPH
gust
KPH
rain 1hr
cm
rain 24hr
cm
rain mn
cm
humidity
%
barometer
mb
20260906060823 27 353 0.0 3.2 0.00 0.00 0.00 41 1020.0
20260906060624 27 31 1.6 3.2 0.00 0.00 0.00 43 1019.9
20260906060422 26 246 0.0 3.2 0.00 0.00 0.00 45 1019.8
20260906060222 26 196 3.2 8.0 0.00 0.00 0.00 45 1020.0
20260906060021 26 183 0.0 8.0 0.00 0.00 0.00 46 1019.9
20260906055821 26 280 1.6 8.0 0.00 0.00 0.00 47 1019.7
20260906055621 26 275 1.6 8.0 0.00 0.00 0.00 47 1019.7
20260906055421 26 1 1.6 11.3 0.00 0.00 0.00 46 1019.6
20260906055221 26 352 0.0 11.3 0.00 0.00 0.00 47 1019.7
20260906055021 26 335 1.6 11.3 0.00 0.00 0.00 44 1019.6
20260906054821 26 198 3.2 11.3 0.00 0.00 0.00 44 1019.7
20260906054621 26 249 3.2 11.3 0.00 0.00 0.00 43 1019.6
20260906054421 25 245 3.2 8.0 0.00 0.00 0.00 44 1019.5
20260906054220 25 257 8.0 8.0 0.00 0.00 0.00 46 1019.8
20260906054021 25 151 3.2 4.8 0.00 0.00 0.00 49 1019.5
20260906053820 24 142 3.2 4.8 0.00 0.00 0.00 50 1019.6
20260906053620 24 216 1.6 4.8 0.00 0.00 0.00 50 1019.7
20260906053419 25 173 1.6 4.8 0.00 0.00 0.00 49 1019.7
20260906053220 25 180 0.0 4.8 0.00 0.00 0.00 48 1019.7
20260906053019 25 341 0.0 4.8 0.00 0.00 0.00 49 1019.6
20260906052820 24 162 4.8 8.0 0.00 0.00 0.00 49 1019.7
20260906052620 24 233 3.2 8.0 0.00 0.00 0.00 47 1019.6
20260906052419 24 207 3.2 8.0 0.00 0.00 0.00 51 1019.7
20260906052219 23 166 3.2 8.0 0.00 0.00 0.00 49 1019.6
20260906052018 23 274 3.2 8.0 0.00 0.00 0.00 51 1019.6
20260906051819 23 11 0.0 4.8 0.00 0.00 0.00 51 1019.7
20260906051612 23 44 0.0 4.8 0.00 0.00 0.00 51 1019.6
20260906051405 23 342 0.0 4.8 0.00 0.00 0.00 51 1019.8
20260906051205 23 309 0.0 4.8 0.00 0.00 0.00 51 1019.6
20260906050952 23 345 3.2 4.8 0.00 0.00 0.00 50 1019.7
20260906050752 23 355 0.0 4.8 0.00 0.00 0.00 50 1019.6
20260906050552 24 233 1.6 4.8 0.00 0.00 0.00 52 1019.5
20260906050351 24 185 1.6 4.8 0.00 0.00 0.00 49 1019.7
20260906050151 24 230 3.2 4.8 0.00 0.00 0.00 50 1019.2
20260906045951 24 94 0.0 4.8 0.00 0.00 0.00 50 1019.7
20260906045751 24 38 0.0 4.8 0.00 0.00 0.00 50 1019.5
20260906045551 23 235 0.0 4.8 0.00 0.00 0.00 50 1019.7
20260906045351 23 199 0.0 4.8 0.00 0.00 0.00 50 1019.5
20260906045152 23 11 0.0 4.8 0.00 0.00 0.00 51 1019.2
20260906044950 23 193 0.0 4.8 0.00 0.00 0.00 50 1019.5
20260906044751 23 224 0.0 4.8 0.00 0.00 0.00 50 1019.6
20260906044550 23 335 1.6 4.8 0.00 0.00 0.00 50 1019.2
20260906044350 23 135 0.0 4.8 0.00 0.00 0.00 51 1019.2
20260906044149 23 274 3.2 4.8 0.00 0.00 0.00 50 1019.3
20260906043950 23 240 3.2 4.8 0.00 0.00 0.00 50 1019.5
20260906043749 23 246 3.2 9.7 0.00 0.00 0.00 50 1019.2
20260906043549 23 84 1.6 12.9 0.00 0.00 0.00 49 1019.5
20260906043349 23 24 0.0 14.5 0.00 0.00 0.00 50 1019.2
20260906043150 23 314 0.0 14.5 0.00 0.00 0.00 50 1019.2
20260906042950 23 272 1.6 14.5 0.00 0.00 0.00 49 1019.0
20260906042749 22 231 6.4 14.5 0.00 0.00 0.00 50 1019.1
20260906042549 20 277 3.2 14.5 0.00 0.00 0.00 55 1019.2
20260906042349 19 0 1.6 8.0 0.00 0.00 0.00 60 1019.2
20260906042149 18 310 3.2 8.0 0.00 0.00 0.00 62 1019.1
20260906041949 18 222 3.2 6.4 0.00 0.00 0.00 63 1019.3
20260906041749 18 39 3.2 6.4 0.00 0.00 0.00 63 1019.0
20260906041550 18 347 3.2 6.4 0.00 0.00 0.00 63 1019.1
20260906041349 17 62 0.0 6.4 0.00 0.00 0.00 65 1019.0
20260906041150 17 61 1.6 6.4 0.00 0.00 0.00 64 1019.0
20260906040949 17 4 4.8 6.4 0.00 0.00 0.00 66 1019.0
20260906040749 17 23 4.8 6.4 0.00 0.00 0.00 67 1019.0
20260906040549 17 335 0.0 6.4 0.00 0.00 0.00 67 1019.3
20260906040349 16 238 3.2 6.4 0.00 0.00 0.00 69 1019.0
20260906040149 16 65 3.2 4.8 0.00 0.00 0.00 70 1019.2
20260906035948 16 237 3.2 4.8 0.00 0.00 0.00 70 1019.0
20260906035748 16 6 3.2 4.8 0.00 0.00 0.00 69 1019.1
20260906035549 16 358 3.2 6.4 0.00 0.00 0.00 69 1019.1
20260906035347 16 273 1.6 6.4 0.00 0.00 0.00 69 1018.9
20260906035148 16 255 3.2 6.4 0.00 0.00 0.00 68 1019.1
20260906034946 16 118 1.6 6.4 0.00 0.00 0.00 68 1019.1
20260906034746 16 10 3.2 6.4 0.00 0.00 0.00 67 1019.1
20260906034546 16 56 4.8 4.8 0.00 0.00 0.00 68 1018.8
20260906034345 16 12 3.2 4.8 0.00 0.00 0.00 69 1018.9
20260906034145 16 65 0.0 4.8 0.00 0.00 0.00 68 1019.0
20260906033944 16 166 0.0 4.8 0.00 0.00 0.00 68 1018.8
20260906033745 16 171 3.2 6.4 0.00 0.00 0.00 68 1019.0
20260906033545 16 146 1.6 6.4 0.00 0.00 0.00 67 1018.7
20260906033346 16 32 0.0 6.4 0.00 0.00 0.00 68 1018.8
20260906033145 16 235 0.0 6.4 0.00 0.00 0.00 68 1018.7
20260906032945 16 40 3.2 9.7 0.00 0.00 0.00 68 1018.8
20260906032746 16 216 0.0 9.7 0.00 0.00 0.00 69 1018.7
20260906032545 16 28 3.2 9.7 0.00 0.00 0.00 69 1018.7
20260906032345 16 195 0.0 9.7 0.00 0.00 0.00 69 1018.9
20260906032146 16 41 6.4 9.7 0.00 0.00 0.00 69 1018.6
20260906031944 15 40 1.6 4.8 0.00 0.00 0.00 70 1018.9
20260906031744 16 26 0.0 6.4 0.00 0.00 0.00 69 1018.8
20260906031544 16 7 3.2 6.4 0.00 0.00 0.00 70 1018.6
20260906031343 16 13 3.2 6.4 0.00 0.00 0.00 69 1018.6
20260906031143 16 69 0.0 6.4 0.00 0.00 0.00 69 1018.6
20260906030943 16 32 3.2 6.4 0.00 0.00 0.00 70 1018.6
20260906030743 15 223 3.2 6.4 0.00 0.00 0.00 70 1018.6
20260906030543 15 348 1.6 6.4 0.00 0.00 0.00 70 1018.3
20260906030343 15 300 1.6 6.4 0.00 0.00 0.00 70 1018.4
20260906030144 15 41 0.0 6.4 0.00 0.00 0.00 71 1018.5
20260906025943 15 326 1.6 6.4 0.00 0.00 0.00 71 1018.7
20260906025743 16 176 3.2 6.4 0.00 0.00 0.00 71 1018.5
20260906025543 16 158 3.2 6.4 0.00 0.00 0.00 69 1018.4
20260906025343 16 143 3.2 6.4 0.00 0.00 0.00 69 1018.5
20260906025143 16 33 3.2 6.4 0.00 0.00 0.00 70 1018.5
20260906024943 16 89 0.0 6.4 0.00 0.00 0.00 71 1018.5
20260906024743 16 65 1.6 4.8 0.00 0.00 0.00 71 1018.6
20260906024543 16 193 0.0 4.8 0.00 0.00 0.00 70 1018.4
20260906024343 16 55 0.0 3.2 0.00 0.00 0.00 70 1018.4
20260906024143 16 242 1.6 3.2 0.00 0.00 0.00 70 1018.1
20260906023943 16 112 3.2 3.2 0.00 0.00 0.00 70 1018.3
20260906023743 16 271 0.0 3.2 0.00 0.00 0.00 70 1018.3
20260906023543 16 243 0.0 3.2 0.00 0.00 0.00 70 1018.3
20260906023342 16 11 0.0 3.2 0.00 0.00 0.00 69 1018.2
20260906023142 16 32 0.0 4.8 0.00 0.00 0.00 69 1018.4
20260906022942 16 343 0.0 4.8 0.00 0.00 0.00 69 1018.3
20260906022743 16 89 3.2 4.8 0.00 0.00 0.00 69 1018.4
20260906022543 16 94 0.0 4.8 0.00 0.00 0.00 69 1018.2
20260906022342 16 325 0.0 4.8 0.00 0.00 0.00 69 1018.5
20260906022143 16 36 1.6 4.8 0.00 0.00 0.00 69 1018.2
20260906021942 16 283 1.6 6.4 0.00 0.00 0.00 69 1018.1
20260906021742 16 273 3.2 9.7 0.00 0.00 0.00 69 1018.2
20260906021542 16 40 3.2 9.7 0.00 0.00 0.00 69 1018.3
20260906021342 16 100 1.6 9.7 0.00 0.00 0.00 69 1018.2
20260906021142 16 261 4.8 9.7 0.00 0.00 0.00 68 1018.3
20260906020941 16 249 0.0 9.7 0.00 0.00 0.00 69 1018.4
20260906020741 16 18 0.0 8.0 0.00 0.00 0.00 69 1018.2
20260906020541 15 64 3.2 8.0 0.00 0.00 0.00 70 1018.3
20260906020340 15 236 3.2 8.0 0.00 0.00 0.00 71 1018.4
20260906020140 15 96 6.4 8.0 0.00 0.00 0.00 70 1018.2
20260906015940 15 85 1.6 6.4 0.00 0.00 0.00 70 1018.5
20260906015739 16 194 3.2 6.4 0.00 0.00 0.00 70 1018.3
20260906015539 15 294 1.6 6.4 0.00 0.00 0.00 70 1018.4
20260906015339 15 221 6.4 6.4 0.00 0.00 0.00 71 1018.6
20260906015139 15 14 3.2 4.8 0.00 0.00 0.00 71 1018.4
20260906014939 15 246 4.8 4.8 0.00 0.00 0.00 71 1018.7
20260906014739 15 191 3.2 4.8 0.00 0.00 0.00 71 1018.5
20260906014539 15 307 1.6 6.4 0.00 0.00 0.00 70 1018.6
20260906014339 15 13 1.6 6.4 0.00 0.00 0.00 71 1018.3
20260906014139 15 359 0.0 6.4 0.00 0.00 0.00 71 1018.2
20260906013938 15 160 0.0 8.0 0.00 0.00 0.00 71 1018.6
20260906013739 15 170 1.6 8.0 0.00 0.00 0.00 71 1018.4
20260906013539 15 22 0.0 8.0 0.00 0.00 0.00 71 1018.4
20260906013338 15 168 0.0 8.0 0.00 0.00 0.00 71 1018.4
20260906013139 15 60 0.0 8.0 0.00 0.00 0.00 72 1018.4
20260906012938 15 209 3.2 4.8 0.00 0.00 0.00 72 1018.6
20260906012738 15 30 3.2 4.8 0.00 0.00 0.00 71 1018.6
20260906012526 15 48 0.0 4.8 0.00 0.00 0.00 71 1018.4
20260906012326 15 28 1.6 3.2 0.00 0.00 0.00 72 1018.5
20260906012126 15 38 0.0 3.2 0.00 0.00 0.00 71 1018.6
20260906011925 15 32 1.6 4.8 0.00 0.00 0.00 72 1018.4
20260906011726 15 176 0.0 4.8 0.00 0.00 0.00 71 1018.6
20260906011515 15 183 0.0 4.8 0.00 0.00 0.00 71 1018.3
20260906011313 15 243 0.0 4.8 0.00 0.00 0.00 71 1018.6
20260906011113 15 184 0.0 4.8 0.00 0.00 0.00 71 1018.4
20260906010912 15 248 3.2 4.8 0.00 0.00 0.00 71 1018.7
20260906010712 15 25 0.0 4.8 0.00 0.00 0.00 71 1018.6
20260906010514 15 319 1.6 4.8 0.00 0.00 0.00 70 1018.3
20260906010312 15 214 3.2 4.8 0.00 0.00 0.00 71 1018.4
20260906010111 15 255 3.2 4.8 0.00 0.00 0.00 71 1018.4
20260906005912 15 184 1.6 4.8 0.00 0.00 0.00 71 1018.4
20260906005710 15 149 1.6 4.8 0.00 0.00 0.00 71 1018.7
20260906005512 15 143 1.6 4.8 0.00 0.00 0.00 72 1018.8
20260906005309 15 15 3.2 4.8 0.00 0.00 0.00 72 1018.3
20260906005109 15 174 3.2 4.8 0.00 0.00 0.00 72 1018.6
20260906004908 15 223 3.2 4.8 0.00 0.00 0.00 72 1018.6
20260906004708 15 215 3.2 4.8 0.00 0.00 0.00 72 1018.5
20260906004511 15 222 0.0 6.4 0.00 0.00 0.00 72 1018.4
20260906004308 15 85 1.6 6.4 0.00 0.00 0.00 72 1018.6
20260906004109 15 296 0.0 6.4 0.00 0.00 0.00 72 1018.8
20260906003908 15 50 0.0 6.4 0.00 0.00 0.00 73 1018.5
20260906003708 15 180 4.8 6.4 0.00 0.00 0.00 73 1018.3
20260906003510 15 192 0.0 3.2 0.00 0.00 0.00 72 1018.3
20260906003308 15 204 0.0 4.8 0.00 0.00 0.00 71 1018.3
20260906003108 15 194 0.0 4.8 0.00 0.00 0.00 71 1018.5
20260906002908 15 52 1.6 4.8 0.00 0.00 0.00 72 1018.6
20260906002707 15 11 1.6 4.8 0.00 0.00 0.00 73 1018.5
20260906002509 15 178 3.2 4.8 0.00 0.00 0.00 73 1018.4
20260906002308 15 203 0.0 3.2 0.00 0.00 0.00 71 1018.3
20260906002107 15 218 1.6 3.2 0.00 0.00 0.00 71 1018.5
20260906001907 15 224 0.0 3.2 0.00 0.00 0.00 71 1018.6
20260906001706 15 65 1.6 3.2 0.00 0.00 0.00 71 1018.6
20260906001508 15 9 1.6 3.2 0.00 0.00 0.00 71 1018.3
20260906001307 15 358 0.0 3.2 0.00 0.00 0.00 71 1018.2
20260906001105 15 194 1.6 3.2 0.00 0.00 0.00 71 1018.2
20260906000907 16 155 0.0 3.2 0.00 0.00 0.00 70 1018.4
20260906000706 16 165 0.0 3.2 0.00 0.00 0.00 70 1018.4
20260906000508 16 219 0.0 3.2 0.00 0.00 0.00 69 1018.6
20260906000306 16 184 0.0 4.8 0.00 0.00 0.00 68 1018.2
20260906000106 16 303 3.2 4.8 0.00 0.00 0.00 68 1018.6
20260905235906 16 41 0.0 4.8 0.00 0.00 0.00 68 1018.5
20260905235706 16 19 3.2 4.8 0.00 0.00 0.00 69 1018.3
20260905235509 16 299 0.0 4.8 0.00 0.00 0.00 69 1018.5
20260905235307 15 255 3.2 4.8 0.00 0.00 0.00 70 1018.6
20260905235106 15 263 0.0 4.8 0.00 0.00 0.00 72 1018.5
20260905234906 15 227 3.2 4.8 0.00 0.00 0.00 72 1018.6
20260905234707 15 181 0.0 3.2 0.00 0.00 0.00 73 1018.6
20260905234509 15 322 0.0 3.2 0.00 0.00 0.00 73 1018.5
20260905234306 15 300 1.6 3.2 0.00 0.00 0.00 73 1018.4
20260905234106 15 299 1.6 4.8 0.00 0.00 0.00 73 1018.4
20260905233907 15 174 3.2 4.8 0.00 0.00 0.00 73 1018.4
20260905233707 15 175 0.0 4.8 0.00 0.00 0.00 72 1018.4
20260905233508 15 37 0.0 4.8 0.00 0.00 0.00 72 1018.6
20260905233306 15 334 3.2 4.8 0.00 0.00 0.00 71 1018.4
20260905233107 15 322 0.0 3.2 0.00 0.00 0.00 73 1018.7
20260905232906 15 245 0.0 3.2 0.00 0.00 0.00 73 1018.8
20260905232706 15 153 0.0 3.2 0.00 0.00 0.00 72 1018.5
20260905232509 15 216 1.6 3.2 0.00 0.00 0.00 72 1018.7
20260905232306 15 26 0.0 4.8 0.00 0.00 0.00 72 1018.9
20260905232106 15 345 0.0 4.8 0.00 0.00 0.00 72 1018.6
20260905231906 15 342 0.0 4.8 0.00 0.00 0.00 72 1018.7
20260905231706 15 185 0.0 4.8 0.00 0.00 0.00 72 1018.8
20260905231508 15 241 1.6 4.8 0.00 0.00 0.00 72 1018.5
20260905231306 15 208 3.2 3.2 0.00 0.00 0.00 72 1018.6
20260905231106 15 60 0.0 4.8 0.00 0.00 0.00 71 1018.9
20260905230906 15 42 1.6 4.8 0.00 0.00 0.00 73 1018.8
20260905230700 15 205 0.0 4.8 0.00 0.00 0.00 73 1018.6
20260905230453 15 219 0.0 4.8 0.00 0.00 0.00 73 1018.5
20260905230252 15 254 0.0 4.8 0.00 0.00 0.00 73 1018.7
20260905230052 15 254 4.8 4.8 0.00 0.00 0.00 73 1018.8
20260905225852 15 269 1.6 3.2 0.00 0.00 0.00 72 1018.6
20260905225652 15 213 0.0 3.2 0.00 0.00 0.00 72 1018.8
20260905225452 15 230 0.0 3.2 0.00 0.00 0.00 72 1018.8
20260905225252 15 358 0.0 3.2 0.00 0.00 0.00 72 1018.7
20260905225052 15 29 0.0 3.2 0.00 0.00 0.00 72 1018.7
20260905224852 15 18 1.6 3.2 0.00 0.00 0.00 72 1018.9
20260905224652 15 197 1.6 3.2 0.00 0.00 0.00 72 1018.7
20260905224451 15 208 1.6 3.2 0.00 0.00 0.00 72 1018.8
20260905224251 15 178 0.0 3.2 0.00 0.00 0.00 72 1018.8
20260905224051 15 187 1.6 3.2 0.00 0.00 0.00 72 1018.6
20260905223850 16 183 3.2 3.2 0.00 0.00 0.00 72 1018.8
20260905223650 16 236 1.6 3.2 0.00 0.00 0.00 71 1018.8
20260905223450 16 3 1.6 3.2 0.00 0.00 0.00 71 1018.6
20260905223250 16 164 0.0 3.2 0.00 0.00 0.00 70 1018.8
20260905223050 16 173 3.2 3.2 0.00 0.00 0.00 70 1018.8
20260905222850 16 210 0.0 3.2 0.00 0.00 0.00 69 1018.9
20260905222650 16 157 0.0 4.8 0.00 0.00 0.00 69 1018.7
20260905222449 16 34 0.0 4.8 0.00 0.00 0.00 69 1018.8
20260905222249 16 201 0.0 4.8 0.00 0.00 0.00 69 1018.9
20260905222050 16 186 3.2 4.8 0.00 0.00 0.00 69 1018.8
20260905221851 16 188 3.2 4.8 0.00 0.00 0.00 69 1018.9
20260905221649 16 180 1.6 3.2 0.00 0.00 0.00 68 1018.7
20260905221450 16 222 0.0 3.2 0.00 0.00 0.00 68 1018.8
20260905221249 16 220 0.0 3.2 0.00 0.00 0.00 67 1018.9
20260905221049 16 315 0.0 1.6 0.00 0.00 0.00 68 1018.8
20260905220849 16 257 0.0 1.6 0.00 0.00 0.00 68 1018.8
20260905220649 16 315 0.0 1.6 0.00 0.00 0.00 69 1018.6
20260905220449 16 322 0.0 1.6 0.00 0.00 0.00 68 1018.7
20260905220249 16 37 0.0 3.2 0.00 0.00 0.00 69 1018.9
20260905220049 16 292 1.6 4.8 0.00 0.00 0.00 69 1019.0
20260905215848 16 164 0.0 6.4 0.00 0.00 0.00 69 1019.0
20260905215649 16 197 0.0 6.4 0.00 0.00 0.00 69 1018.8
20260905215447 16 17 0.0 6.4 0.00 0.00 0.00 69 1018.8
20260905215248 16 229 1.6 6.4 0.00 0.00 0.00 69 1018.8
20260905215047 16 220 3.2 6.4 0.00 0.00 0.00 69 1019.0
20260905214847 16 311 0.0 3.2 0.00 0.00 0.00 70 1018.8
20260905214646 16 325 0.0 3.2 0.00 0.00 0.00 70 1018.8
20260905214446 16 332 3.2 3.2 0.00 0.00 0.00 71 1019.0
20260905214246 16 294 0.0 3.2 0.00 0.00 0.00 71 1018.8
20260905214046 16 308 0.0 3.2 0.00 0.00 0.00 71 1018.9
20260905213846 16 184 0.0 3.2 0.00 0.00 0.00 72 1018.9
20260905213646 15 269 3.2 3.2 0.00 0.00 0.00 72 1018.9
20260905213447 15 272 0.0 3.2 0.00 0.00 0.00 73 1018.9
20260905213246 15 257 0.0 3.2 0.00 0.00 0.00 74 1019.2
20260905213047 15 221 0.0 3.2 0.00 0.00 0.00 74 1018.9
20260905212846 15 197 0.0 3.2 0.00 0.00 0.00 74 1019.0
20260905212646 15 221 1.6 3.2 0.00 0.00 0.00 74 1018.8
20260905212446 15 148 0.0 3.2 0.00 0.00 0.00 76 1018.9
20260905212245 15 202 1.6 3.2 0.00 0.00 0.00 75 1019.0
20260905212045 15 179 0.0 3.2 0.00 0.00 0.00 74 1019.0
20260905211846 15 169 0.0 3.2 0.00 0.00 0.00 74 1019.0
20260905211645 15 179 1.6 3.2 0.00 0.00 0.00 74 1018.8
20260905211446 15 161 0.0 3.2 0.00 0.00 0.00 74 1019.1
20260905211245 15 353 0.0 3.2 0.00 0.00 0.00 75 1018.9
20260905211045 15 185 0.0 3.2 0.00 0.00 0.00 75 1018.9
20260905210832 15 172 1.6 3.2 0.00 0.00 0.00 75 1019.0
20260905210633 15 304 1.6 3.2 0.00 0.00 0.00 74 1019.0
20260905210431 15 333 0.0 3.2 0.00 0.00 0.00 75 1019.1
20260905210231 16 252 1.6 3.2 0.00 0.00 0.00 75 1019.1
20260905210031 16 232 1.6 3.2 0.00 0.00 0.00 76 1018.8
20260905205831 16 191 0.0 3.2 0.00 0.00 0.00 76 1019.0
20260905205630 16 185 0.0 3.2 0.00 0.00 0.00 76 1018.9
20260905205431 16 219 0.0 3.2 0.00 0.00 0.00 75 1018.8
20260905205231 16 186 0.0 3.2 0.00 0.00 0.00 74 1019.0
20260905205031 16 179 1.6 3.2 0.00 0.00 0.00 74 1018.9
20260905204824 16 183 1.6 1.6 0.00 0.00 0.00 73 1018.8
20260905204617 17 315 0.0 3.2 0.00 0.00 0.00 73 1018.9
20260905204417 16 304 0.0 3.2 0.00 0.00 0.00 73 1018.9
20260905204217 16 224 0.0 3.2 0.00 0.00 0.00 73 1018.9
20260905204017 16 195 0.0 3.2 0.00 0.00 0.00 73 1018.7
20260905203819 17 174 0.0 3.2 0.00 0.00 0.00 72 1018.7
20260905203617 16 221 0.0 3.2 0.00 0.00 0.00 72 1018.8
20260905203406 16 218 0.0 3.2 0.00 0.00 0.00 73 1018.8
20260905203206 16 321 0.0 3.2 0.00 0.00 0.00 73 1018.8
20260905203006 16 355 0.0 3.2 0.00 0.00 0.00 72 1018.9
20260905202805 17 205 0.0 3.2 0.00 0.00 0.00 72 1018.7
20260905202605 17 304 0.0 3.2 0.00 0.00 0.00 71 1018.7
20260905202404 17 169 0.0 3.2 0.00 0.00 0.00 72 1018.6
20260905202204 17 184 0.0 1.6 0.00 0.00 0.00 71 1018.7
20260905202004 17 242 0.0 1.6 0.00 0.00 0.00 70 1018.9
20260905201752 17 280 0.0 3.2 0.00 0.00 0.00 70 1018.7
20260905201553 17 224 0.0 3.2 0.00 0.00 0.00 70 1018.6
20260905201352 17 218 0.0 3.2 0.00 0.00 0.00 70 1018.5
20260905201152 17 230 0.0 3.2 0.00 0.00 0.00 70 1018.8
20260905200953 17 201 0.0 3.2 0.00 0.00 0.00 70 1018.6
20260905200751 17 304 3.2 3.2 0.00 0.00 0.00 70 1018.5
20260905200552 17 231 0.0 3.2 0.00 0.00 0.00 69 1018.6
20260905200351 17 335 1.6 1.6 0.00 0.00 0.00 69 1018.7
20260905200150 17 341 0.0 1.6 0.00 0.00 0.00 68 1018.7
20260905195952 17 297 0.0 1.6 0.00 0.00 0.00 68 1018.5
20260905195749 17 306 0.0 3.2 0.00 0.00 0.00 69 1018.6
20260905195549 17 198 0.0 3.2 0.00 0.00 0.00 69 1018.5
20260905195349 17 18 1.6 3.2 0.00 0.00 0.00 69 1018.6
20260905195151 17 343 0.0 3.2 0.00 0.00 0.00 69 1018.7
20260905194951 17 338 1.6 3.2 0.00 0.00 0.00 69 1018.8
20260905194749 17 255 0.0 3.2 0.00 0.00 0.00 69 1018.6
20260905194548 17 255 0.0 3.2 0.00 0.00 0.00 69 1018.6
20260905194348 17 268 0.0 3.2 0.00 0.00 0.00 69 1018.6
20260905194148 17 219 0.0 3.2 0.00 0.00 0.00 68 1018.7
20260905193951 17 228 1.6 3.2 0.00 0.00 0.00 68 1018.6
20260905193747 18 307 0.0 3.2 0.00 0.00 0.00 68 1018.5
20260905193549 18 241 1.6 3.2 0.00 0.00 0.00 68 1018.5
20260905193348 18 221 0.0 3.2 0.00 0.00 0.00 68 1018.6
20260905193149 18 320 0.0 3.2 0.00 0.00 0.00 68 1018.6
20260905192950 18 174 0.0 3.2 0.00 0.00 0.00 68 1018.8
20260905192748 18 193 0.0 3.2 0.00 0.00 0.00 68 1018.7
20260905192548 18 193 0.0 3.2 0.00 0.00 0.00 68 1018.8
20260905192347 18 215 1.6 3.2 0.00 0.00 0.00 69 1018.6
20260905192148 18 179 0.0 3.2 0.00 0.00 0.00 69 1018.7
20260905191949 18 234 0.0 3.2 0.00 0.00 0.00 68 1018.7
20260905191747 18 233 3.2 3.2 0.00 0.00 0.00 69 1018.6
20260905191547 18 238 0.0 3.2 0.00 0.00 0.00 68 1018.8
20260905191348 18 190 3.2 3.2 0.00 0.00 0.00 67 1018.5
20260905191147 18 176 0.0 3.2 0.00 0.00 0.00 68 1018.6
20260905190948 18 180 0.0 3.2 0.00 0.00 0.00 68 1018.6
20260905190746 19 191 0.0 3.2 0.00 0.00 0.00 67 1018.8
20260905190547 19 176 1.6 3.2 0.00 0.00 0.00 66 1018.7
20260905190345 19 177 0.0 3.2 0.00 0.00 0.00 67 1018.6
20260905190145 19 209 0.0 3.2 0.00 0.00 0.00 66 1018.6
20260905185947 19 198 1.6 3.2 0.00 0.00 0.00 66 1018.5
20260905185744 20 217 0.0 3.2 0.00 0.00 0.00 65 1018.6
20260905185544 20 241 0.0 3.2 0.00 0.00 0.00 65 1018.5
20260905185343 20 229 0.0 3.2 0.00 0.00 0.00 65 1018.6
20260905185143 20 329 0.0 3.2 0.00 0.00 0.00 64 1018.4
20260905184945 20 209 1.6 3.2 0.00 0.00 0.00 64 1018.6
20260905184742 20 233 1.6 3.2 0.00 0.00 0.00 64 1018.4
20260905184542 20 238 1.6 3.2 0.00 0.00 0.00 64 1018.4
20260905184342 20 273 0.0 3.2 0.00 0.00 0.00 64 1018.6
20260905184143 20 271 0.0 3.2 0.00 0.00 0.00 63 1018.6
20260905183930 20 293 0.0 3.2 0.00 0.00 0.00 63 1018.4
20260905183730 20 322 0.0 3.2 0.00 0.00 0.00 62 1018.5
20260905183518 20 315 1.6 3.2 0.00 0.00 0.00 63 1018.7
20260905183318 20 199 1.6 3.2 0.00 0.00 0.00 63 1018.5
20260905183118 20 335 0.0 3.2 0.00 0.00 0.00 63 1018.6
20260905182918 20 253 3.2 3.2 0.00 0.00 0.00 62 1018.5
20260905182718 20 202 1.6 6.4 0.00 0.00 0.00 62 1018.6
20260905182519 20 190 0.0 6.4 0.00 0.00 0.00 62 1018.6
20260905182319 21 180 0.0 6.4 0.00 0.00 0.00 62 1018.5
20260905182118 21 180 3.2 6.4 0.00 0.00 0.00 61 1018.4
20260905181918 21 199 3.2 6.4 0.00 0.00 0.00 60 1018.5
20260905181717 21 177 3.2 3.2 0.00 0.00 0.00 59 1018.6
20260905181517 21 222 0.0 3.2 0.00 0.00 0.00 57 1018.4
20260905181317 21 202 0.0 3.2 0.00 0.00 0.00 57 1018.2
20260905181117 21 252 0.0 3.2 0.00 0.00 0.00 57 1018.6
20260905180904 21 330 0.0 3.2 0.00 0.00 0.00 58 1018.4
20260905180705 22 245 1.6 3.2 0.00 0.00 0.00 58 1018.4
20260905180504 22 253 0.0 3.2 0.00 0.00 0.00 58 1018.2
20260905180303 22 322 0.0 3.2 0.00 0.00 0.00 58 1018.3
20260905180103 22 235 1.6 3.2 0.00 0.00 0.00 57 1018.6
20260905175902 22 224 0.0 3.2 0.00 0.00 0.00 56 1018.3
20260905175703 22 287 0.0 3.2 0.00 0.00 0.00 55 1018.3
20260905175504 22 211 3.2 3.2 0.00 0.00 0.00 54 1018.2
20260905175305 23 216 0.0 3.2 0.00 0.00 0.00 54 1018.2
20260905175101 23 294 1.6 3.2 0.00 0.00 0.00 53 1018.1
20260905174900 23 201 3.2 3.2 0.00 0.00 0.00 53 1018.2
20260905174700 23 205 0.0 3.2 0.00 0.00 0.00 51 1018.3
20260905174501 23 195 0.0 3.2 0.00 0.00 0.00 52 1018.2
20260905174259 23 313 3.2 3.2 0.00 0.00 0.00 51 1018.0
20260905174059 23 268 3.2 3.2 0.00 0.00 0.00 50 1018.1
20260905173859 23 241 1.6 4.8 0.00 0.00 0.00 50 1018.1
20260905173700 24 255 1.6 4.8 0.00 0.00 0.00 50 1018.1
20260905173459 24 263 0.0 4.8 0.00 0.00 0.00 49 1018.0
20260905173259 25 245 3.2 4.8 0.00 0.00 0.00 47 1018.0
20260905173101 25 269 0.0 4.8 0.00 0.00 0.00 47 1018.2
20260905172859 25 254 0.0 4.8 0.00 0.00 0.00 47 1017.9
20260905172659 25 259 3.2 4.8 0.00 0.00 0.00 45 1018.0
20260905172459 25 265 1.6 4.8 0.00 0.00 0.00 45 1018.1
20260905172259 25 228 0.0 3.2 0.00 0.00 0.00 44 1018.0
20260905172059 25 219 0.0 3.2 0.00 0.00 0.00 43 1018.0
20260905171857 25 7 1.6 3.2 0.00 0.00 0.00 44 1017.9
20260905171658 26 195 0.0 3.2 0.00 0.00 0.00 44 1017.8
20260905171458 26 217 0.0 3.2 0.00 0.00 0.00 44 1017.9
20260905171259 26 215 0.0 3.2 0.00 0.00 0.00 42 1017.8
20260905171058 26 333 0.0 3.2 0.00 0.00 0.00 41 1017.9
20260905170859 26 309 0.0 4.8 0.00 0.00 0.00 43 1017.8
20260905170659 26 315 0.0 4.8 0.00 0.00 0.00 41 1017.6
20260905170458 27 292 1.6 4.8 0.00 0.00 0.00 39 1017.6
20260905170258 27 246 3.2 4.8 0.00 0.00 0.00 39 1017.7
20260905170058 27 252 1.6 6.4 0.00 0.00 0.00 39 1017.8
20260905165858 27 265 3.2 6.4 0.00 0.00 0.00 39 1017.6
20260905165700 27 254 1.6 6.4 0.00 0.00 0.00 40 1017.6
20260905165458 27 235 3.2 6.4 0.00 0.00 0.00 40 1017.6
20260905165257 27 235 1.6 6.4 0.00 0.00 0.00 40 1017.7
20260905165057 27 283 3.2 4.8 0.00 0.00 0.00 43 1017.6
20260905164857 27 269 1.6 4.8 0.00 0.00 0.00 42 1017.7
20260905164658 27 297 0.0 4.8 0.00 0.00 0.00 43 1017.6
20260905164457 27 295 1.6 4.8 0.00 0.00 0.00 43 1017.6
20260905164256 27 236 1.6 4.8 0.00 0.00 0.00 41 1017.7
20260905164056 27 225 0.0 4.8 0.00 0.00 0.00 41 1017.6
20260905163855 27 268 1.6 4.8 0.00 0.00 0.00 40 1017.3
20260905163655 28 259 1.6 4.8 0.00 0.00 0.00 40 1017.5
20260905163455 28 252 4.8 4.8 0.00 0.00 0.00 39 1017.5
20260905163255 28 278 1.6 3.2 0.00 0.00 0.00 41 1017.4
20260905163055 28 265 1.6 4.8 0.00 0.00 0.00 41 1017.3
20260905162855 28 230 0.0 4.8 0.00 0.00 0.00 40 1017.4
20260905162655 29 224 0.0 4.8 0.00 0.00 0.00 41 1017.5
20260905162456 29 259 1.6 4.8 0.00 0.00 0.00 39 1017.4
20260905162255 30 266 0.0 4.8 0.00 0.00 0.00 39 1017.4
20260905162054 30 275 3.2 3.2 0.00 0.00 0.00 38 1017.4
20260905161853 30 274 1.6 4.8 0.00 0.00 0.00 37 1017.2
20260905161653 31 255 0.0 4.8 0.00 0.00 0.00 37 1017.5
20260905161453 31 259 3.2 4.8 0.00 0.00 0.00 36 1017.3
20260905161252 31 257 3.2 4.8 0.00 0.00 0.00 36 1017.4
20260905161052 31 252 1.6 6.4 0.00 0.00 0.00 36 1017.3
20260905160855 31 256 0.0 6.4 0.00 0.00 0.00 37 1017.3
20260905160651 31 258 3.2 6.4 0.00 0.00 0.00 36 1017.5
20260905160451 31 265 3.2 6.4 0.00 0.00 0.00 36 1017.6
20260905160250 31 255 3.2 6.4 0.00 0.00 0.00 36 1017.2
20260905160051 32 251 6.4 6.4 0.00 0.00 0.00 35 1017.2
20260905155849 32 277 3.2 6.4 0.00 0.00 0.00 36 1017.4
20260905155650 32 245 3.2 6.4 0.00 0.00 0.00 34 1017.2
20260905155450 32 253 3.2 6.4 0.00 0.00 0.00 34 1017.3
20260905155250 32 269 3.2 6.4 0.00 0.00 0.00 34 1017.5
20260905155050 32 248 3.2 6.4 0.00 0.00 0.00 34 1017.3
20260905154843 32 259 4.8 6.4 0.00 0.00 0.00 32 1017.2
20260905154637 32 256 1.6 6.4 0.00 0.00 0.00 32 1017.4
20260905154438 32 259 4.8 6.4 0.00 0.00 0.00 32 1017.3
20260905154238 32 243 4.8 6.4 0.00 0.00 0.00 31 1017.2
20260905154037 32 233 3.2 8.0 0.00 0.00 0.00 32 1017.2
20260905153838 32 239 3.2 8.0 0.00 0.00 0.00 32 1017.2
20260905153637 32 221 4.8 8.0 0.00 0.00 0.00 32 1017.2
20260905153438 32 228 3.2 8.0 0.00 0.00 0.00 32 1017.3
20260905153238 32 235 4.8 8.0 0.00 0.00 0.00 32 1017.3
20260905153037 33 203 4.8 8.0 0.00 0.00 0.00 31 1017.4
20260905152838 33 231 8.0 8.0 0.00 0.00 0.00 31 1017.2
20260905152637 33 233 3.2 8.0 0.00 0.00 0.00 30 1017.3
20260905152437 33 241 3.2 8.0 0.00 0.00 0.00 31 1017.4
20260905152236 33 259 4.8 8.0 0.00 0.00 0.00 31 1017.1
20260905152036 34 242 3.2 8.0 0.00 0.00 0.00 31 1017.4
20260905151835 35 232 6.4 6.4 0.00 0.00 0.00 29 1017.4
20260905151635 35 272 3.2 6.4 0.00 0.00 0.00 30 1017.2
20260905151435 34 226 3.2 6.4 0.00 0.00 0.00 29 1017.4
20260905151235 34 229 3.2 4.8 0.00 0.00 0.00 28 1017.4
20260905151035 35 210 3.2 4.8 0.00 0.00 0.00 28 1017.3
20260905150834 35 241 3.2 6.4 0.00 0.00 0.00 27 1017.2
20260905150635 35 249 3.2 6.4 0.00 0.00 0.00 27 1017.3
20260905150434 35 233 3.2 8.0 0.00 0.00 0.00 29 1017.2
20260905150233 35 269 3.2 8.0 0.00 0.00 0.00 28 1017.3
20260905150033 34 226 1.6 8.0 0.00 0.00 0.00 28 1017.4
20260905145832 34 228 3.2 8.0 0.00 0.00 0.00 27 1017.5
20260905145632 34 223 3.2 8.0 0.00 0.00 0.00 26 1017.4
20260905145432 35 238 6.4 8.0 0.00 0.00 0.00 27 1017.4
20260905145231 35 254 3.2 8.0 0.00 0.00 0.00 26 1017.3
20260905145032 35 266 3.2 6.4 0.00 0.00 0.00 28 1017.5
20260905144949 36 261 3.2 4.8 0.00 0.00 0.00 28 1017.2
20260905144941 36 227 3.2 4.8 0.00 0.00 0.00 26 1017.2
20260905144431 35 246 3.2 6.4 0.00 0.00 0.00 27 1017.3
20260905144231 35 252 3.2 6.4 0.00 0.00 0.00 28 1017.5
20260905144030 34 240 3.2 6.4 0.00 0.00 0.00 26 1017.2
20260905143830 34 346 3.2 6.4 0.00 0.00 0.00 27 1017.4
20260905143629 34 262 3.2 6.4 0.00 0.00 0.00 27 1017.4
20260905143429 35 325 3.2 6.4 0.00 0.00 0.00 27 1017.2
20260905143229 35 251 3.2 6.4 0.00 0.00 0.00 26 1017.3
20260905143029 35 263 3.2 6.4 0.00 0.00 0.00 26 1017.4
20260905142828 35 320 3.2 6.4 0.00 0.00 0.00 26 1017.3
20260905142628 36 280 1.6 6.4 0.00 0.00 0.00 26 1017.3
20260905142428 36 265 0.0 4.8 0.00 0.00 0.00 26 1017.5
20260905142228 36 229 4.8 4.8 0.00 0.00 0.00 25 1017.4
20260905142028 36 254 3.2 4.8 0.00 0.00 0.00 26 1017.4
20260905141828 36 228 0.0 4.8 0.00 0.00 0.00 26 1017.3
20260905141626 36 257 1.6 4.8 0.00 0.00 0.00 27 1017.2
20260905141427 35 239 3.2 6.4 0.00 0.00 0.00 25 1017.5
20260905141225 36 286 0.0 6.4 0.00 0.00 0.00 25 1017.4
20260905141025 36 250 3.2 6.4 0.00 0.00 0.00 25 1017.2
20260905140824 36 290 4.8 6.4 0.00 0.00 0.00 26 1017.1
20260905140625 36 267 0.0 6.4 0.00 0.00 0.00 26 1017.3
20260905140425 36 250 4.8 6.4 0.00 0.00 0.00 25 1017.4
20260905140225 36 252 3.2 6.4 0.00 0.00 0.00 27 1017.3
20260905140025 36 250 3.2 6.4 0.00 0.00 0.00 27 1017.4
20260905135825 36 251 1.6 6.4 0.00 0.00 0.00 26 1017.5
20260905135624 36 237 1.6 4.8 0.00 0.00 0.00 25 1017.3
20260905135426 36 261 3.2 4.8 0.00 0.00 0.00 26 1017.6
20260905135223 35 273 3.2 4.8 0.00 0.00 0.00 26 1017.5
20260905135023 35 278 3.2 4.8 0.00 0.00 0.00 27 1017.5
20260905134823 35 228 4.8 8.0 0.00 0.00 0.00 25 1017.5
20260905134623 35 226 4.8 8.0 0.00 0.00 0.00 26 1017.4
20260905134423 35 253 3.2 9.7 0.00 0.00 0.00 26 1017.5
20260905134223 34 207 0.0 9.7 0.00 0.00 0.00 26 1017.6
20260905134023 34 209 1.6 9.7 0.00 0.00 0.00 28 1017.4
20260905133822 34 232 4.8 9.7 0.00 0.00 0.00 27 1017.6
20260905133623 35 230 6.4 9.7 0.00 0.00 0.00 26 1017.6
20260905133422 35 243 4.8 6.4 0.00 0.00 0.00 26 1017.6
20260905133222 35 231 0.0 6.4 0.00 0.00 0.00 26 1017.6
20260905133022 35 271 1.6 6.4 0.00 0.00 0.00 26 1017.6
20260905132820 35 199 3.2 6.4 0.00 0.00 0.00 26 1017.5
20260905132620 35 247 3.2 9.7 0.00 0.00 0.00 27 1017.8
20260905132420 35 231 3.2 9.7 0.00 0.00 0.00 26 1017.3
20260905132219 35 286 3.2 9.7 0.00 0.00 0.00 26 1017.6
20260905132019 34 252 4.8 9.7 0.00 0.00 0.00 26 1017.7
20260905131818 34 222 1.6 11.3 0.00 0.00 0.00 26 1017.7
20260905131618 34 242 4.8 11.3 0.00 0.00 0.00 27 1017.8
20260905131418 34 208 4.8 11.3 0.00 0.00 0.00 26 1017.7
20260905131217 34 252 6.4 11.3 0.00 0.00 0.00 26 1017.8
20260905131017 34 276 4.8 11.3 0.00 0.00 0.00 26 1017.8
20260905130816 34 204 11.3 11.3 0.00 0.00 0.00 26 1017.7
20260905130616 33 249 3.2 8.0 0.00 0.00 0.00 27 1017.8
20260905130418 33 211 6.4 8.0 0.00 0.00 0.00 26 1017.9
20260905130226 34 187 3.2 8.0 0.00 0.00 0.00 27 1017.9
20260905130014 34 10 1.6 6.4 0.00 0.00 0.00 26 1017.7
20260905125813 35 290 0.0 6.4 0.00 0.00 0.00 27 1017.8
20260905125614 34 269 3.2 6.4 0.00 0.00 0.00 27 1018.0
20260905125413 34 243 6.4 6.4 0.00 0.00 0.00 27 1017.9
20260905125213 33 255 3.2 6.4 0.00 0.00 0.00 26 1018.0
20260905125013 33 184 3.2 6.4 0.00 0.00 0.00 27 1017.7
20260905124811 32 49 0.0 4.8 0.00 0.00 0.00 28 1017.9
20260905124612 33 38 0.0 4.8 0.00 0.00 0.00 28 1017.9
20260905124412 33 353 0.0 4.8 0.00 0.00 0.00 28 1018.1
20260905124212 32 347 1.6 4.8 0.00 0.00 0.00 27 1018.0
20260905124013 33 341 3.2 6.4 0.00 0.00 0.00 28 1018.1
20260905123812 33 356 3.2 8.0 0.00 0.00 0.00 27 1018.0
20260905123611 33 193 0.0 9.7 0.00 0.00 0.00 27 1018.0
20260905123411 33 212 0.0 9.7 0.00 0.00 0.00 28 1018.0
20260905123210 33 161 3.2 9.7 0.00 0.00 0.00 27 1018.1
20260905123011 33 189 4.8 9.7 0.00 0.00 0.00 27 1018.1
20260905122810 33 197 4.8 9.7 0.00 0.00 0.00 27 1018.2
20260905122610 33 315 3.2 8.0 0.00 0.00 0.00 26 1018.3
20260905122410 33 291 1.6 8.0 0.00 0.00 0.00 28 1018.1
20260905122209 33 117 3.2 8.0 0.00 0.00 0.00 27 1018.1
20260905122010 34 199 4.8 6.4 0.00 0.00 0.00 27 1018.2
20260905121808 33 248 0.0 6.4 0.00 0.00 0.00 28 1018.3
20260905121608 33 316 3.2 6.4 0.00 0.00 0.00 27 1018.4
20260905121409 33 9 1.6 6.4 0.00 0.00 0.00 28 1018.3
20260905121208 33 241 0.0 6.4 0.00 0.00 0.00 28 1018.4
20260905121008 33 242 0.0 6.4 0.00 0.00 0.00 28 1018.2
20260905120807 32 290 3.2 6.4 0.00 0.00 0.00 28 1018.5
20260905120607 32 317 1.6 6.4 0.00 0.00 0.00 29 1018.4
20260905120407 33 0 3.2 6.4 0.00 0.00 0.00 29 1018.5
20260905120206 33 326 1.6 9.7 0.00 0.00 0.00 28 1018.6
20260905120009 33 214 4.8 9.7 0.00 0.00 0.00 28 1018.6
20260905115806 33 269 0.0 9.7 0.00 0.00 0.00 28 1018.6
20260905115607 33 164 3.2 9.7 0.00 0.00 0.00 28 1018.4
20260905115406 32 253 4.8 9.7 0.00 0.00 0.00 28 1018.7
20260905115207 32 206 0.0 9.7 0.00 0.00 0.00 30 1018.6
20260905115007 32 213 8.0 9.7 0.00 0.00 0.00 28 1018.6
20260905114806 32 198 6.4 9.7 0.00 0.00 0.00 28 1018.8
20260905114605 32 215 3.2 9.7 0.00 0.00 0.00 29 1018.5
20260905114405 32 223 6.4 9.7 0.00 0.00 0.00 30 1018.6
20260905114205 32 215 0.0 9.7 0.00 0.00 0.00 30 1018.8
20260905114004 32 216 3.2 9.7 0.00 0.00 0.00 28 1018.6
20260905113804 32 253 3.2 9.7 0.00 0.00 0.00 28 1018.7
20260905113604 31 216 4.8 9.7 0.00 0.00 0.00 28 1018.8
20260905113404 32 196 8.0 9.7 0.00 0.00 0.00 28 1018.7
20260905113204 32 247 6.4 9.7 0.00 0.00 0.00 28 1018.8
20260905113003 32 191 6.4 9.7 0.00 0.00 0.00 29 1018.8
20260905112802 32 220 3.2 9.7 0.00 0.00 0.00 30 1018.8
20260905112603 32 266 1.6 9.7 0.00 0.00 0.00 29 1018.8
20260905112402 33 251 6.4 9.7 0.00 0.00 0.00 29 1018.9
20260905112202 33 256 3.2 8.0 0.00 0.00 0.00 29 1018.7
20260905112003 33 209 0.0 6.4 0.00 0.00 0.00 29 1018.8
20260905111801 32 257 3.2 9.7 0.00 0.00 0.00 29 1018.7
20260905111601 33 264 4.8 9.7 0.00 0.00 0.00 29 1018.9
20260905111401 32 228 6.4 9.7 0.00 0.00 0.00 29 1018.8
20260905111200 32 268 3.2 9.7 0.00 0.00 0.00 29 1018.9
20260905111000 32 249 4.8 9.7 0.00 0.00 0.00 29 1018.9
20260905110759 32 261 8.0 8.0 0.00 0.00 0.00 29 1018.9
20260905110600 32 261 4.8 8.0 0.00 0.00 0.00 29 1019.1
20260905110359 32 289 1.6 8.0 0.00 0.00 0.00 29 1019.0
20260905110201 32 198 3.2 8.0 0.00 0.00 0.00 29 1019.0
20260905105959 32 218 3.2 8.0 0.00 0.00 0.00 29 1019.1
20260905105759 32 152 3.2 9.7 0.00 0.00 0.00 28 1019.2
20260905105559 32 191 4.8 9.7 0.00 0.00 0.00 29 1019.1
20260905105359 32 255 1.6 9.7 0.00 0.00 0.00 30 1018.9
20260905105159 31 37 0.0 9.7 0.00 0.00 0.00 31 1019.0
20260905104959 31 194 1.6 9.7 0.00 0.00 0.00 30 1019.1
20260905104759 32 197 9.7 9.7 0.00 0.00 0.00 30 1018.9
20260905104558 32 260 3.2 4.8 0.00 0.00 0.00 30 1019.2
20260905104358 32 251 3.2 6.4 0.00 0.00 0.00 30 1019.2
20260905104159 32 318 3.2 6.4 0.00 0.00 0.00 29 1019.2
20260905104000 32 249 3.2 6.4 0.00 0.00 0.00 31 1019.1
20260905103757 32 316 0.0 6.4 0.00 0.00 0.00 29 1019.3
20260905103557 32 319 1.6 6.4 0.00 0.00 0.00 30 1019.1
20260905103358 32 225 3.2 6.4 0.00 0.00 0.00 30 1019.2
20260905103156 32 220 3.2 4.8 0.00 0.00 0.00 30 1019.3
20260905102956 32 209 4.8 4.8 0.00 0.00 0.00 31 1019.5
20260905102755 32 247 1.6 4.8 0.00 0.00 0.00 32 1019.5
20260905102556 32 297 0.0 4.8 0.00 0.00 0.00 31 1019.5
20260905102355 31 320 3.2 4.8 0.00 0.00 0.00 31 1019.2
20260905102155 31 240 3.2 4.8 0.00 0.00 0.00 31 1019.3
20260905101956 31 108 0.0 6.4 0.00 0.00 0.00 31 1019.0
20260905101754 32 323 0.0 6.4 0.00 0.00 0.00 31 1019.3
20260905101554 32 278 3.2 6.4 0.00 0.00 0.00 31 1019.5
20260905101355 31 272 3.2 6.4 0.00 0.00 0.00 31 1019.3
20260905101153 31 228 0.0 8.0 0.00 0.00 0.00 31 1019.3
20260905100954 31 267 1.6 8.0 0.00 0.00 0.00 30 1019.6
20260905100753 31 316 0.0 8.0 0.00 0.00 0.00 30 1019.5
20260905100554 31 253 4.8 8.0 0.00 0.00 0.00 30 1019.5
20260905100354 31 247 1.6 8.0 0.00 0.00 0.00 31 1019.7
20260905100152 31 177 1.6 4.8 0.00 0.00 0.00 31 1019.7
20260905095952 31 197 1.6 4.8 0.00 0.00 0.00 30 1019.5
20260905095751 31 214 3.2 4.8 0.00 0.00 0.00 29 1019.6
20260905095551 31 249 4.8 4.8 0.00 0.00 0.00 30 1019.8
20260905095351 31 250 0.0 4.8 0.00 0.00 0.00 30 1019.9
20260905095151 31 13 3.2 4.8 0.00 0.00 0.00 30 1019.7
20260905094952 31 208 0.0 6.4 0.00 0.00 0.00 31 1019.6
20260905094751 31 229 3.2 6.4 0.00 0.00 0.00 30 1019.6
20260905094540 31 317 1.6 6.4 0.00 0.00 0.00 31 1019.6
20260905094340 31 266 3.2 6.4 0.00 0.00 0.00 30 1019.6
20260905094137 31 261 0.0 8.0 0.00 0.00 0.00 31 1019.8
20260905093938 31 256 3.2 9.7 0.00 0.00 0.00 31 1019.8
20260905093737 31 327 3.2 9.7 0.00 0.00 0.00 32 1019.9
20260905093537 31 251 3.2 9.7 0.00 0.00 0.00 31 1019.8
20260905093339 31 227 4.8 9.7 0.00 0.00 0.00 31 1019.7
20260905093136 30 218 3.2 9.7 0.00 0.00 0.00 32 1019.9
20260905092936 31 298 3.2 4.8 0.00 0.00 0.00 31 1019.9
20260905092736 31 294 0.0 8.0 0.00 0.00 0.00 32 1019.9
20260905092536 31 232 3.2 8.0 0.00 0.00 0.00 32 1019.9
20260905092339 31 218 0.0 8.0 0.00 0.00 0.00 31 1020.0
20260905092130 30 13 0.0 8.0 0.00 0.00 0.00 31 1019.8
20260905091924 30 277 8.0 8.0 0.00 0.00 0.00 31 1019.9
20260905091724 31 251 3.2 6.4 0.00 0.00 0.00 32 1020.0
20260905091523 31 317 3.2 6.4 0.00 0.00 0.00 31 1019.9
20260905091323 30 258 3.2 6.4 0.00 0.00 0.00 32 1019.7
20260905091123 30 359 0.0 6.4 0.00 0.00 0.00 32 1019.9
20260905090923 30 307 0.0 6.4 0.00 0.00 0.00 32 1020.0
20260905090723 30 251 4.8 6.4 0.00 0.00 0.00 33 1020.0
20260905090523 30 291 3.2 6.4 0.00 0.00 0.00 33 1020.0
20260905090322 30 251 3.2 6.4 0.00 0.00 0.00 34 1020.1
20260905090122 30 246 3.2 6.4 0.00 0.00 0.00 33 1020.2
20260905085922 30 260 3.2 4.8 0.00 0.00 0.00 34 1020.0
20260905085721 30 339 0.0 4.8 0.00 0.00 0.00 35 1020.1
20260905085509 29 315 0.0 8.0 0.00 0.00 0.00 36 1020.1
20260905085308 29 316 3.2 8.0 0.00 0.00 0.00 35 1020.1
20260905085108 29 347 0.0 9.7 0.00 0.00 0.00 35 1020.2
20260905084909 29 246 0.0 9.7 0.00 0.00 0.00 35 1020.2
20260905084707 28 242 6.4 9.7 0.00 0.00 0.00 35 1020.2
20260905084508 29 258 4.8 9.7 0.00 0.00 0.00 36 1020.3
20260905084307 29 216 3.2 9.7 0.00 0.00 0.00 36 1020.2
20260905084107 29 239 3.2 9.7 0.00 0.00 0.00 34 1020.1
20260905083906 29 249 3.2 9.7 0.00 0.00 0.00 36 1020.2
20260905083707 29 238 3.2 9.7 0.00 0.00 0.00 35 1020.2
20260905083506 28 255 3.2 9.7 0.00 0.00 0.00 36 1020.2
20260905083307 29 197 6.4 9.7 0.00 0.00 0.00 36 1020.3
20260905083106 29 226 4.8 9.7 0.00 0.00 0.00 36 1020.2
20260905082907 28 169 3.2 9.7 0.00 0.00 0.00 35 1020.4
20260905082705 28 230 3.2 9.7 0.00 0.00 0.00 37 1020.4
20260905082507 28 237 8.0 9.7 0.00 0.00 0.00 36 1020.4
20260905082307 29 215 3.2 9.7 0.00 0.00 0.00 36 1020.5
20260905082104 29 252 1.6 9.7 0.00 0.00 0.00 36 1020.2
20260905081904 29 274 1.6 9.7 0.00 0.00 0.00 38 1020.5
20260905081703 28 234 0.0 9.7 0.00 0.00 0.00 38 1020.5
20260905081503 28 248 3.2 9.7 0.00 0.00 0.00 39 1020.3
20260905081302 28 246 6.4 9.7 0.00 0.00 0.00 38 1020.3
20260905081102 28 273 6.4 8.0 0.00 0.00 0.00 39 1020.6
20260905080902 28 229 0.0 8.0 0.00 0.00 0.00 38 1020.3
20260905080702 28 266 4.8 8.0 0.00 0.00 0.00 37 1020.6
20260905080502 28 257 3.2 8.0 0.00 0.00 0.00 38 1020.4
20260905080301 28 266 3.2 9.7 0.00 0.00 0.00 39 1020.6
20260905080101 28 181 3.2 9.7 0.00 0.00 0.00 39 1020.6
20260905075901 27 235 0.0 9.7 0.00 0.00 0.00 39 1020.4
20260905075701 27 248 4.8 9.7 0.00 0.00 0.00 39 1020.6
20260905075500 28 188 8.0 9.7 0.00 0.00 0.00 38 1020.6
20260905075300 28 213 3.2 8.0 0.00 0.00 0.00 39 1020.6
20260905075059 28 195 6.4 6.4 0.00 0.00 0.00 40 1020.4
20260905074859 28 183 3.2 6.4 0.00 0.00 0.00 38 1020.5
20260905074659 28 256 3.2 4.8 0.00 0.00 0.00 40 1020.5
20260905074500 28 261 0.0 8.0 0.00 0.00 0.00 42 1020.4
20260905074258 27 289 3.2 8.0 0.00 0.00 0.00 41 1020.6
20260905074058 27 293 3.2 8.0 0.00 0.00 0.00 41 1020.4
20260905073858 27 246 0.0 8.0 0.00 0.00 0.00 43 1020.6
20260905073658 27 179 0.0 8.0 0.00 0.00 0.00 41 1020.6
20260905073459 27 199 3.2 6.4 0.00 0.00 0.00 42 1020.6
20260905073257 27 201 4.8 6.4 0.00 0.00 0.00 41 1020.6
20260905073056 27 155 1.6 6.4 0.00 0.00 0.00 43 1020.5
20260905072856 27 221 1.6 4.8 0.00 0.00 0.00 41 1020.7
20260905072656 27 269 3.2 4.8 0.00 0.00 0.00 42 1020.7
20260905072455 27 196 3.2 4.8 0.00 0.00 0.00 41 1020.6
20260905072254 27 237 0.0 4.8 0.00 0.00 0.00 45 1020.5
20260905072054 27 239 4.8 4.8 0.00 0.00 0.00 43 1020.5
20260905071854 26 289 0.0 4.8 0.00 0.00 0.00 44 1020.5
20260905071653 26 194 3.2 3.2 0.00 0.00 0.00 44 1020.6
20260905071453 26 271 1.6 4.8 0.00 0.00 0.00 47 1020.7
20260905071253 26 248 3.2 4.8 0.00 0.00 0.00 47 1020.5
20260905071054 26 286 0.0 4.8 0.00 0.00 0.00 48 1020.5
20260905070853 26 228 0.0 4.8 0.00 0.00 0.00 47 1020.4
20260905070653 26 288 1.6 4.8 0.00 0.00 0.00 48 1020.5
20260905070453 26 234 1.6 4.8 0.00 0.00 0.00 48 1020.5
20260905070252 25 255 0.0 4.8 0.00 0.00 0.00 48 1020.4
20260905070052 25 235 1.6 4.8 0.00 0.00 0.00 50 1020.6
20260905065853 26 278 1.6 4.8 0.00 0.00 0.00 48 1020.5
20260905065651 25 218 0.0 4.8 0.00 0.00 0.00 50 1020.7
20260905065451 25 229 0.0 4.8 0.00 0.00 0.00 51 1020.6
20260905065251 25 241 1.6 4.8 0.00 0.00 0.00 51 1020.6
20260905065050 24 333 0.0 4.8 0.00 0.00 0.00 52 1020.6
20260905064852 23 258 1.6 6.4 0.00 0.00 0.00 53 1020.7
20260905064650 23 277 1.6 6.4 0.00 0.00 0.00 54 1020.4
20260905064451 23 251 1.6 6.4 0.00 0.00 0.00 54 1020.4
20260905064250 23 296 0.0 6.4 0.00 0.00 0.00 55 1020.4
20260905064050 23 235 4.8 6.4 0.00 0.00 0.00 54 1020.5
20260905063850 22 210 1.6 6.4 0.00 0.00 0.00 56 1020.4
20260905063650 22 182 1.6 6.4 0.00 0.00 0.00 56 1020.5
20260905063449 22 227 3.2 6.4 0.00 0.00 0.00 57 1020.4
20260905063250 22 202 1.6 6.4 0.00 0.00 0.00 57 1020.4
20260905063049 22 203 4.8 6.4 0.00 0.00 0.00 58 1020.6
20260905062850 22 239 0.0 4.8 0.00 0.00 0.00 58 1020.5
20260905062648 22 197 1.6 3.2 0.00 0.00 0.00 57 1020.5
20260905062448 22 239 3.2 4.8 0.00 0.00 0.00 57 1020.6
20260905062247 22 255 1.6 4.8 0.00 0.00 0.00 59 1020.3
20260905062048 21 201 0.0 4.8 0.00 0.00 0.00 61 1020.6
20260905061847 21 228 3.2 4.8 0.00 0.00 0.00 62 1020.5
20260905061647 21 197 3.2 4.8 0.00 0.00 0.00 60 1020.4
20260905061447 21 217 0.0 4.8 0.00 0.00 0.00 60 1020.6
20260905061248 21 203 0.0 4.8 0.00 0.00 0.00 61 1020.5
20260905061047 21 170 1.6 4.8 0.00 0.00 0.00 63 1020.5